This is the latest recevied weather packets stored in our database for station/object 9W2CHF-3. If no packets are shown the sender has not sent any weather packets the latest 10 day(s).
| Time | Temp. | Humidity | Pressure | Rain* | Wind** | Luminosity | Snow |
|---|---|---|---|---|---|---|---|
| 1777613213 | 38.33° C | 58% | 1010.4 hPa | - | - | - | - |
| 1777612013 | 38.89° C | 58% | 1010.7 hPa | - | - | - | - |
| 1777610813 | 37.22° C | 58% | 1011.1 hPa | - | - | - | - |
| 1777609613 | 35° C | 70% | 1011.4 hPa | - | - | - | - |
| 1777608413 | 34.44° C | 73% | 1011.5 hPa | - | - | - | - |
| 1777607212 | 35° C | 73% | 1011.7 hPa | - | - | - | - |
| 1777606012 | 36.11° C | 69% | 1012.3 hPa | - | - | - | - |
| 1777604812 | 36.67° C | 66% | 1012.1 hPa | - | - | - | - |
| 1777603612 | 37.22° C | 69% | 1011.9 hPa | - | - | - | - |
| 1777602411 | 36.67° C | 73% | 1012 hPa | - | - | - | - |
| 1777601211 | 32.78° C | 95% | 1011.9 hPa | - | - | - | - |
| 1777600011 | 30° C | 100% | 1011.8 hPa | - | - | - | - |
| 1777598811 | 30° C | 100% | 1011.8 hPa | - | - | - | - |
| 1777597611 | 29.44° C | 100% | 1011.5 hPa | - | - | - | - |
| 1777596411 | 28.89° C | 100% | 1011.3 hPa | - | - | - | - |
| 1777595210 | 29.44° C | 100% | 1011 hPa | - | - | - | - |
| 1777594010 | 28.89° C | 100% | 1010.6 hPa | - | - | - | - |
| 1777592810 | 28.89° C | 100% | 1010.6 hPa | - | - | - | - |
| 1777591610 | 28.33° C | 100% | 1010.7 hPa | - | - | - | - |
| 1777590410 | 30.56° C | 91% | 1010.5 hPa | - | - | - | - |
| 1777589210 | 30° C | 97% | 1010.2 hPa | - | - | - | - |
| 1777588010 | 30° C | 100% | 1010.1 hPa | - | - | - | - |
| 1777586810 | 30° C | 100% | 1009.9 hPa | - | - | - | - |
| 1777585609 | 30° C | 100% | 1010 hPa | - | - | - | - |
| 1777584409 | 30° C | 100% | 1010 hPa | - | - | - | - |
* Rain since midnight (hover to see other rain measurements)
** Current wind speed in m/s (hover to see current wind gust speed)